Regional Weather Roundup
Issued by NWS

Home | Current Version | Previous Version | Graphics & Text | Print | Product List | Glossary On
Versions: 1 2 3 4 5 6 7 8 9 10 11 12 13 14 15 16 17 18 19 20 21 22 23 24 25 26 27 28 29 30 31 32 33 34 35 36 37 38 39 40 41 42 43 44 45 46 47 48
000
ASUS45 KBOU 110710
RWRCO

WEATHER ROUNDUP FOR COLORADO
NATIONAL WEATHER SERVICE DENVER/BOULDER CO
100 AM MDT FRI JUL 11 2014

NOTE: "FAIR" INDICATES FEW OR NO CLOUDS BELOW 12000 FEET WITH NO
SIGNIFICANT WEATHER AND/OR OBSTRUCTIONS TO VISIBILITY.

COZ001>005-013-030-031-110800-
...NORTHWEST COLORADO...

CITY           SKY/WX    TMP DP  RH WIND       PRES   REMARKS
CRAIG          CLOUDY    61  56  83 S13       30.19R
HAYDEN         CLOUDY    61  55  82 E14       30.23S
MEEKER         LGT RAIN  65  53  65 E9        30.20F
MOUNT WERNER   NOT AVBL
STEAMBOAT SPGS CLOUDY    59  55  89 E10       30.28F
WALDEN         CLOUDY    55  50  82 S5        30.35R
$$

COZ006>008-011-110800-
...WEST CENTRAL VALLEYS...

CITY           SKY/WX    TMP DP  RH WIND       PRES   REMARKS
GRAND JUNCTION CLOUDY    77  52  41 NW21      30.08R
MONTROSE       MOCLDY    68  60  75 S5        30.13S
EAGLE          CLOUDY    61  61 100 E3        30.30F
RIFLE          LGT RAIN  66  59  78 NE7       30.14F
DELTA          MOCLDY    73  55  51 S6        30.09R
NUCLA          MOCLDY    73  48  40 N3        30.18F
$$

COZ017>023-064>068-110800-
...SOUTHWEST COLORADO...

CITY           SKY/WX    TMP DP  RH WIND       PRES   REMARKS
DURANGO        CLOUDY    66  54  65 W9        30.25R
CORTEZ         MOCLDY    74  51  44 S12       30.17R
PAGOSA SPRINGS CLOUDY    62  52  68 CALM      30.32R
TELLURIDE      MOCLDY    57  48  72 SE6       30.39S
WOLF CREEK PAS NOT AVBL
$$

COZ009-010-012-014-032>034-037-058>063-110800-
...CENTRAL COLORADO...

CITY           SKY/WX    TMP DP  RH WIND       PRES   REMARKS
ASPEN          CLOUDY    57  53  86 S7        30.33R
BUENA VISTA    MOCLDY    60  49  66 W12       30.30F
COPPER MTN     CLOUDY    52  41  66 W10G16    30.63R
BERTHOUD PASS  CLOUDY    45  30  57 NW6       30.67S
COTTONWOOD PAS CLOUDY    59  41  51 W8        30.44F
GUNNISON       CLOUDY    59  48  67 NE3       30.33S
KREMMLING      DRIZZLE   61  50  67 CALM      30.33R
LEADVILLE      CLOUDY    50  46  86 N6        30.46R
MONARCH PASS   CLOUDY    52  37  58 W15       30.71F
SALIDA         MOCLDY    66  49  54 NW6       30.35S
SUNLIGHT       CLOUDY    52  50  93 CALM      30.54R THUNDER
WILKERSON PASS CLOUDY    55  36  47 SW5       30.58F
$$

COZ069>075-110800-
...SAN LUIS VALLEY/SANGRE DE CRISTO MOUNTAINS...

CITY           SKY/WX    TMP DP  RH WIND       PRES   REMARKS
ALAMOSA        PTCLDY    59  50  72 E3        30.26R
LA VETA PASS   CLEAR     55  43  62 SW8       30.46S
SAGUACHE       NOT AVBL
$$

COZ035-036-038>040-110800-
...NORTHERN COLORADO FRONT RANGE...

CITY           SKY/WX    TMP DP  RH WIND       PRES   REMARKS
DENVER INTL AP CLOUDY    70  56  61 N14       30.10R
DMNS CITY PARK   N/A     72  54  54 N5G10     30.11S
AURORA         CLOUDY    69  56  64 NW8       30.13R
FRONT RANGE AP NOT AVBL
ERIE MUNI ARPT CLOUDY    70  55  59 N5        30.09F
BOULDER MUN AP CLOUDY    72  54  53 CALM      30.10F
CENTENNIAL     CLOUDY    70  54  56 NW15      30.15R
BROOMFIELD     CLOUDY    72  54  53 NW5       30.13S
FORT COLLINS   CLOUDY    72  55  56 NE8       30.08R
LONGMONT       CLOUDY    73  57  57 CALM      30.10R
$$

COZ041-046-047-076>085-087-088-110800-
...PIKES PEAK/PALMER DIVIDE AND SOUTHERN FOOTHILLS...

CITY           SKY/WX    TMP DP  RH WIND       PRES   REMARKS
COLO. SPRINGS  MOCLDY    69  39  33 N5        30.11F
A. F. ACADEMY  MOCLDY    63  44  49 N15       30.15S
ELLICOTT       NOT AVBL
FALCON         PTCLDY    63  39  41 NW6       30.17F
FORT CARSON    CLOUDY    70  42  35 NW12      30.06F
LIMON          PTCLDY    68  48  48 SE5       30.05R
MONUMENT HILL  MOCLDY    66  45  45 NW14G22   30.21R
TRINIDAD       CLEAR     76  48  37 S10       30.08S
$$

COZ042>045-048>051-090-091-110800-
...NORTHEAST COLORADO...

CITY           SKY/WX    TMP DP  RH WIND       PRES   REMARKS
GREELEY ARPT   NOT AVBL
AKRON          MOCLDY    72  60  66 N14       30.01R
BURLINGTON     CLEAR     76  51  41 S16       29.97S
WRAY             N/A     75  62  62 E6        29.93R
STERLING       MOCLDY    72  63  73 NE14G22   29.98F
HOLYOKE        PTCLDY    73  64  73 NE13G25   29.99R
FORT MORGAN    MOCLDY    68  57  68 N20G26    30.02S
$$

COZ086-089-092>099-110800-
...SOUTHEAST COLORADO...

CITY           SKY/WX    TMP DP  RH WIND       PRES   REMARKS
PUEBLO         CLEAR     75  45  34 W3        29.97R
LA JUNTA       CLEAR     83  51  33 S9        29.96R
LAMAR          CLEAR     81  47  30 S24       29.93S
SPRINGFIELD      N/A     73  49  42 S17       30.05R
$$


USA.gov is the U.S. government's official web portal to all federal, state and local government web resources and services.